Location: Daytona Beach
(29.2106°N, 81.0231°W)
Time: 14:00:30
(UTC-04:00)

RS-15 - Pass Details

Date: 28 September 2021
Orbit: 1884 x 2160 km, 64.8° (Epoch: 22 October)

Event Time Altitude Azimuth Distance (km) Brightness Sun altitude
Rises 23:19:15 0° 339° (NNW) 5,625 10.9 -51.7°
Reaches altitude 10° 23:23:49 10° 353° (N) 4,648 10.3 -52.5°
Enters shadow 23:30:16 23° 24° (NNE) 3,707 9.5 -53.6°
